Simultaneous Nadir Overpasses (SNOs) Predictions

Prediction of SNOs between LANDSAT-8 and METOP-A Satellite Orbit:

Table of predicted SNOs for the next 14.0 days since TLE Epoch: 7/21/2018
Index Date (LANDSAT-8) Time (LANDSAT-8) Lat,Lon (LANDSAT-8) SZA (LANDSAT-8 ) Date (METOP-A) Time (METOP-A) Lat,Lon (METOP-A) SZA (METOP-A ) Distance(km) Time Diff (sec)
1 07/22/2018 09:58:45 -81.37,-105.39 116.49 07/22/2018 09:58:12 -81.38,-105.43 116.51 0.87 33
2 07/22/2018 10:48:11 81.38, 62.39 63.54 07/22/2018 10:48:52 81.38, 62.19 63.54 3.35 41
3 07/25/2018 05:33:01 -81.38, -38.85 115.90 07/25/2018 05:32:28 -81.38, -38.71 115.90 2.43 33
4 07/25/2018 06:22:27 81.38, 128.91 64.13 07/25/2018 06:23:08 81.38, 128.87 64.15 0.64 41
5 07/28/2018 01:07:16 -81.38, 27.67 115.26 07/28/2018 01:06:44 -81.38, 27.62 115.28 0.99 32
6 07/28/2018 01:56:42 81.38,-164.60 64.76 07/28/2018 01:57:23 81.39,-164.46 64.80 2.31 41
7 07/30/2018 20:41:32 -81.38, 94.17 114.59 07/30/2018 20:41:00 -81.38, 94.32 114.59 2.36 32
8 07/30/2018 21:30:58 81.39, -98.12 65.43 07/30/2018 21:31:40 81.39, -98.20 65.45 1.30 42
9 08/02/2018 16:15:48 -81.39, 160.65 113.87 08/02/2018 16:15:17 -81.38, 160.61 113.89 0.82 31




NCC Satellite Simultaneous Nadir Overpasses (SNOs) Prediction Service
